Washington State Current Weather Observations

 
 ASUS46 KSEW 171810
 RWRWA 
 
 WASHINGTON REGIONAL WEATHER ROUNDUP
 NATIONAL WEATHER SERVICE SEATTLE WA
 1100 AM PDT MON JUN 17 2019
 
 NOTE:"FAIR" INDICATES FEW OR NO CLOUDS BELOW 12,000 FEET WITH NO 
 SIGNIFICANT WEATHER AND/OR OBSTRUCTIONS TO VISIBILITY.
 
 WAZ507-509-555>559-171900-
 SEATTLE, TACOMA, EVERETT, AND VICINITY
   
 CITY           SKY/WX    TMP DP  RH WIND       PRES   REMARKS
 EVERETT        FAIR      62  54  74 W9        30.16R                  
 6HR MIN TEMP:  53; 6HR MAX TEMP:  63;                                
 
 BOEING FIELD   CLOUDY    62  53  72 S6        30.15S                  
 6HR MIN TEMP:  57; 6HR MAX TEMP:  62;                                
 
 RENTON         CLOUDY    61  54  77 SE6       30.15S                  
 6HR MIN TEMP:  58; 6HR MAX TEMP:  61;                                
 
 SEATAC AIRPORT CLOUDY    61  52  72 SW7       30.16R                  
 6HR MIN TEMP:  56; 6HR MAX TEMP:  61;                                
 
 JBLM-MCCHORD   CLOUDY    60  59  96 CALM      30.16R                  
 6HR MIN TEMP:  54; 6HR MAX TEMP:  60;                                
 
 PUYALLUP       CLOUDY    61  55  82 CALM      30.16S                  
 BREMERTON      CLOUDY    58  53  84 W5        30.16S                  
 6HR MIN TEMP:  54; 6HR MAX TEMP:  59;                                
 
 JBLM-FT LEWIS  CLOUDY    60  59  96 SW7       30.15S                  
 6HR MIN TEMP:  55; 6HR MAX TEMP:  60;                                
 
 TACOMA NARROWS CLOUDY    57  52  83 S5        30.17R                  
 6HR MIN TEMP:  54; 6HR MAX TEMP:  58;                                
 
 
WAZ001-503-506-510-514-515-171900- NORTH INTERIOR CITY SKY/WX TMP DP RH WIND PRES REMARKS BELLINGHAM FAIR 60 52 74 S17 30.12R 6HR MIN TEMP: 56; 6HR MAX TEMP: 61; FRIDAY HARBOR FAIR 61 52 72 SE10 30.13S 6HR MIN TEMP: 54; 6HR MAX TEMP: 65; EASTSOUND FAIR 63 54 72 S16 30.10S PORT ANGELES FAIR 59 53 80 W9 30.15S 6HR MIN TEMP: 50; 6HR MAX TEMP: 59; EDIZ HOOK FAIR 57 52 83 W13G20 30.14F 6HR MIN TEMP: 51; 6HR MAX TEMP: 57; PORT TOWNSEND PTSUNNY 63 57 82 VRB6 30.14S NAS WHIDBEY CLOUDY 62 53 72 W7 30.19R 6HR MIN TEMP: 56; 6HR MAX TEMP: 62; ARLINGTON FAIR 67 55 65 NW6 30.14S 6HR MIN TEMP: 52; 6HR MAX TEMP: 67; BURLINGTON CLOUDY 68 55 64 S7 30.14S
WAZ020-022-039-040-504-511-512-171900- SOUTHWEST INTERIOR CITY SKY/WX TMP DP RH WIND PRES REMARKS SHELTON CLOUDY 60 53 77 SW7 30.14R 6HR MIN TEMP: 54; 6HR MAX TEMP: 60; OLYMPIA CLOUDY 58 52 80 SW6 30.17R 6HR MIN TEMP: 54; 6HR MAX TEMP: 58; CHEHALIS CLOUDY 63 54 72 S3 30.17R KELSO CLOUDY 62 53 72 W6 30.17R 6HR MIN TEMP: 57; 6HR MAX TEMP: 62; VANCOUVER CLOUDY 63 52 67 VRB5 30.15S 6HR MIN TEMP: 57; 6HR MAX TEMP: 63; SCAPPOOSE, OR FAIR 65 54 67 NE6 30.14S 6HR MIN TEMP: 52; 6HR MAX TEMP: 66; PORTLAND, OR CLOUDY 64 51 62 N3 30.16R 6HR MIN TEMP: 58; 6HR MAX TEMP: 64;
WAZ021-516-517-171900- WASHINGTON COAST CITY SKY/WX TMP DP RH WIND PRES REMARKS FORKS CLOUDY 60 55 83 W6 30.17R 6HR MIN TEMP: 52; 6HR MAX TEMP: 60; HOQUIAM PTSUNNY 61 57 87 W15 30.17S 6HR MIN TEMP: 52; 6HR MAX TEMP: 61; ASTORIA, OR CLOUDY 59 55 87 NW7 30.18R 6HR MIN TEMP: 54; 6HR MAX TEMP: 60; 6HR PCP: TRACE;
WAZ019-023-024-040-567>569-171900- CASCADE MOUNTAINS AND COLUMBIA GORGE CITY SKY/WX TMP DP RH WIND PRES REMARKS STAMPEDE PASS FAIR 61 48 62 VRB6 30.15S 6HR MIN TEMP: 48; 6HR MAX TEMP: 61; TROUTDALE, OR CLOUDY 61 52 72 SW3 30.16R 6HR MIN TEMP: 59; 6HR MAX TEMP: 61; HOOD RIVER, OR FAIR 73 52 46 W6 30.04S THE DALLES, OR FAIR 75 54 47 NW21G29 29.99S 6HR MIN TEMP: 62; 6HR MAX TEMP: 75;
WAZ026-027-041>044-520-521-171900- EAST SLOPES CITY SKY/WX TMP DP RH WIND PRES REMARKS OMAK FAIR 82 48 30 N10 29.95F 6HR MIN TEMP: 60; 6HR MAX TEMP: 83; WENATCHEE FAIR 79 45 29 NW10 29.96F 6HR MIN TEMP: 65; 6HR MAX TEMP: 79; ELLENSBURG FAIR 77 51 40 NW22G30 30.00R 6HR MIN TEMP: 62; 6HR MAX TEMP: 77; YAKIMA FAIR 82 48 30 NW10 29.97F 6HR MIN TEMP: 67; 6HR MAX TEMP: 83; SUNNYSIDE ARPT FAIR 82 50 33 CALM 29.96 6HR MIN TEMP: 55; 6HR MAX TEMP: 82; YAKIMA TC FAIR 79 45 29 W6 29.97S 6HR MIN TEMP: 61; 6HR MAX TEMP: 79;
WAZ028-034-035-171900- COLUMBIA BASIN CITY SKY/WX TMP DP RH WIND PRES REMARKS EPHRATA NOT AVBL MOSES LAKE FAIR 86 47 25 W7 29.96S 6HR MIN TEMP: 66; 6HR MAX TEMP: 87; PASCO FAIR 81 49 32 VRB5 29.97S 6HR MIN TEMP: 65; 6HR MAX TEMP: 82; RICHLAND ARPT FAIR 83 51 33 S7 29.96F 6HR MIN TEMP: 64; 6HR MAX TEMP: 83; HERMISTON, OR FAIR 82 48 30 SW8 29.97F 6HR MIN TEMP: 65; 6HR MAX TEMP: 82;
WAZ036>038-171900- NORTHEAST WASHINGTON CITY SKY/WX TMP DP RH WIND PRES REMARKS SPOKANE GEIGER PTSUNNY 72 52 49 SE7 30.02R 6HR MIN TEMP: 59; 6HR MAX TEMP: 72; SPOKANE FELTS PTSUNNY 76 52 43 SW6 30.01R 6HR MIN TEMP: 60; 6HR MAX TEMP: 76; FAIRCHILD AFB FAIR 72 52 49 CALM 30.02S 6HR MIN TEMP: 57; 6HR MAX TEMP: 72; COEURDALENE,ID FAIR 76 53 44 VRB3 30.02R 6HR MIN TEMP: 58; 6HR MAX TEMP: 76; DEER PARK FAIR 76 52 43 VRB5 30.02S 6HR MIN TEMP: 51; 6HR MAX TEMP: 76;
WAZ029>033-171900- SOUTHEAST WASHINGTON CITY SKY/WX TMP DP RH WIND PRES REMARKS PULLMAN FAIR 73 52 47 VRB7 30.05R 6HR MIN TEMP: 57; 6HR MAX TEMP: 74; LEWISTON, ID FAIR 78 52 40 VRB5 29.98S 6HR MIN TEMP: 61; 6HR MAX TEMP: 79; WALLA WALLA FAIR 77 49 37 SW10G20 30.00S 6HR MIN TEMP: 65; 6HR MAX TEMP: 78; PENDLETON, OR FAIR 78 46 32 VRB6 30.00S 6HR MIN TEMP: 57; 6HR MAX TEMP: 79;

Data from: http://www.wrh.noaa.gov/sew/get.php?pil=RWR&sid=WA&version=0&format=printer

Current Observations

Current Weather Conditions by Major Highway
Washington State Current Weather Observations   …  Oregon State Current Weather Observation



48 Hour Forecast


Seattle  …  Vancouver  …  Portland
————————————————————————————————————————
Bend  …  Spokane  …  Richland  …  Pendleton  …  Blue Mountains I-84  …  Yakima
————————————————————————————————————————
Goldendale, Washington Higher Elevations  …  Dallesport Airport - Goldendale  …  Bingen - White Salmon - Hood River  …  Index





Top of Page